{"data":{"norad_id":67710,"intl_designator":"2026-025T","name":"STARLINK-36344","alt_names":[],"object_type":"PAYLOAD","status":"ACTIVE","operator":null,"country":"US","launch_date":"2026-02-07","launch_site_code":"AFWTR","launch_vehicle":null,"mission":null,"orbit_class":"UNKNOWN","rcs_meters":null,"size_class":null,"mass_kg":null,"dimensions":null,"purposes":["comms"],"wikipedia_slug":null,"has_3d_model":false,"image_url":null,"decayed_at":null,"tle_current":{"epoch":"2026-09-19T13:39:59.661792Z","epoch_age_seconds":149590,"freshness":"FRESH","line1":"1 67710U 26025T   26262.56944053  .00019314  00000+0  59897-3 0  9998","line2":"2 67710  97.2843  12.4924 0000824  89.8115 270.3222 15.33449901 35739","mean_motion":15.33449901,"eccentricity":8.24e-5,"inclination_deg":97.2843,"raan_deg":12.4924,"arg_perigee_deg":89.8115,"mean_anomaly_deg":270.3222,"bstar":0.00059897,"rev_number":3573,"period_min":93.905904526841,"perigee_km":464.96467454429,"apogee_km":466.09251063394,"semimajor_km":6843.6655925891,"source":"CELESTRAK","updated_at":"2026-09-20T09:00:43.654471Z"}}}